{"data":{"norad_id":53555,"intl_designator":"2022-101AE","name":"STARLINK-4504","alt_names":[],"object_type":"PAYLOAD","status":"ACTIVE","operator":null,"country":"US","launch_date":"2022-08-19","launch_site_code":"AFETR","launch_vehicle":null,"mission":null,"orbit_class":"UNKNOWN","rcs_meters":null,"size_class":null,"mass_kg":null,"dimensions":null,"purposes":["comms"],"wikipedia_slug":null,"has_3d_model":false,"image_url":null,"decayed_at":null,"tle_current":{"epoch":"2026-09-20T13:09:38.011104Z","epoch_age_seconds":74849,"freshness":"FRESH","line1":"1 53555U 22101AE  26263.54835661  .00000395  00000+0  42901-4 0  9992","line2":"2 53555  53.1607 268.7056 0001199  66.9107 293.2011 15.08837191226382","mean_motion":15.08837191,"eccentricity":0.0001199,"inclination_deg":53.1607,"raan_deg":268.7056,"arg_perigee_deg":66.9107,"mean_anomaly_deg":293.2011,"bstar":4.2901e-5,"rev_number":22638,"period_min":95.437732353722,"perigee_km":538.92252007857,"apogee_km":540.58142985476,"semimajor_km":6917.8889749667,"source":"CELESTRAK","updated_at":"2026-09-21T09:00:32.926262Z"}}}